Voltar ao catálogo

ARIANE 5 R/B

AtivoGTO
NORAD 57216·ROCKET BODY·🇫🇷 France

Lançado Jul 5, 2023 de Guiana Space Centre

Loading…

TLE

EnvelhecendoSource: Space-Track

Época: Sep 14, 2026, 06:13 UTC

1 57216U 23093D   26257.25907939  .00001338  00000-0  70219-3 0  9991
2 57216   3.0432 322.4066 7195594  71.6192 349.4071  2.37563469 27309

Acompanhe ARIANE 5 R/B em tempo real com AllMySat

Download on the App Store